Weather in Malokaterynivka

Ukraine / Zaporizhia Region     47°39′27″N   35°15′25″E
temp.,
°C
wind,
m/s
gust,
m/s
humid.,
%
clouds,
%
prec.,
mm/h
press.,
hPa
HPBL,
m
16 october, sat
sat1600:00+10e354999 0.0 1022113
03:00+9e365335 0.0 1020101
06:00+8ene3857100 0.0 1019165
09:00+11e475295 0.0 1019265
12:00+16e4446100 0.0 1017659
15:00+18ene3439100 0.0 1016996
18:00+16ne3547100 0.0 101696
21:00+14ne3653100 0.0 1016122
17 october, sun
sun1700:00+13nne3558100 0.0 1016141
03:00+13nne5959100 0.0 1016267
06:00+13nne3861100 0.1 1016302
09:00+12nne4865100 0.6 1017287
12:00+13n4656100 0.0 1017342
15:00+13n4651100 0.0 1017386
18:00+13n3648100 0.0 1017270
21:00+13n355599 0.0 1018186
18 october, mon
mon1800:00+12nnw3663100 0.0 1018240
03:00+9n477220 0.0 1018181
06:00+8nnw367546 0.0 1018130
09:00+10nnw356334 0.0 1019307
12:00+13nw3446100 0.0 1019962
15:00+14wnw4540100 0.0 10181401
18:00+12wnw364522 0.0 1018281
21:00+9nw355287 0.0 1019110
19 october, tue
tue1900:00+9wnw2254100 0.0 101957
03:00+9w3553100 0.0 1018185
06:00+10wsw2557100 0.0 1018249
09:00+10wnw5659100 0.1 10181165
12:00+9nw4576100 0.8 10181017
15:00+9nnw577070 1.8 1019984
18:00+9nnw495020 0.0 1021310
21:00+7nnw512460 0.0 1023440
20 october, wed
wed2000:00+6nnw510610 0.0 1025342
03:00+4nnw48675 0.0 1026227
06:00+3nnw47685 0.0 1028230
09:00+4n36605 0.0 1029534
12:00+8nnw34445 0.0 10301207
15:00+9wnw233758 0.0 10281362
18:00+7ssw355413 0.0 1029136
21:00+6s3455100 0.0 102871